Location: Andrest
(43.3200°N, 0.0641°E)
Time: 15:13:09
(UTC+00:00)

NOAA 11 - Pass Details

Date: 01 December 2020
Orbit: 833 x 849 km, 98.4° (Epoch: 24 January)

Event Time Altitude Azimuth Distance (km) Brightness Sun altitude
Rises 17:40:31 0° 163° (SSE) 3,367 7.3 -13.4°
Reaches altitude 10° 17:42:52 10° 163° (SSE) 2,438 6.6 -13.8°
Maximum altitude 17:48:16 87° 77° (ENE) 844 4.1 -14.7°
Drops below altitude 10° 17:53:45 10° 347° (NNW) 2,463 6.6 -15.7°
Sets 17:56:08 0° 348° (NNW) 3,404 7.3 -16.1°
